Location: Shannon
(40.5500°S, 175.4167°E)
Time: 03:27:32
(UTC+00:00)

FENGYUN 3A - Visible Passes

Search period start: 19 February 2026 00:00
Search period end: 01 March 2026 00:00
Orbit: 820 x 834 km, 98.7° (Epoch: 18 February)

Date Brightness Start Highest point End Pass type
(mag) Time Alt. Az. Time Alt. Az. Time Alt. Az.
19 Feb 5.6 12:35:43 25° SSE 12:35:43 25° SSE 12:38:33 10° S visible
19 Feb 5.7 14:17:13 18° SW 14:17:13 18° SW 14:18:47 10° SSW visible
20 Feb 5.8 12:16:48 20° SE 12:16:48 20° SE 12:19:20 10° SSE visible
20 Feb 5.6 13:58:18 22° SW 13:58:18 22° SW 14:00:18 10° SSW visible
21 Feb 6.1 11:57:53 15° SE 11:57:53 15° SE 11:59:50 10° SSE visible
21 Feb 5.5 13:39:24 25° SSW 13:39:24 25° SSW 13:41:40 10° SSW visible
22 Feb 6.3 11:38:59 11° SE 11:38:59 11° SE 11:39:34 10° SE visible
22 Feb 5.5 13:20:29 27° S 13:20:29 27° S 13:22:53 10° S visible
23 Feb 5.6 13:01:35 26° S 13:01:35 26° S 13:04:00 10° S visible
23 Feb 6.1 14:43:05 10° SW 14:43:05 10° SW 14:43:07 10° SW visible
24 Feb 5.7 12:42:40 23° SSE 12:42:40 23° SSE 12:44:59 10° S visible
24 Feb 6.0 14:24:10 14° SW 14:24:10 14° SW 14:24:58 10° SW visible
25 Feb 5.9 12:23:45 19° SSE 12:23:45 19° SSE 12:25:50 10° S visible
25 Feb 5.9 14:05:16 17° SSW 14:05:16 17° SSW 14:06:33 10° SSW visible
26 Feb 6.1 12:04:50 15° SE 12:04:50 15° SE 12:06:27 10° SSE visible
26 Feb 5.8 13:46:21 20° SSW 13:46:21 20° SSW 13:47:57 10° SSW visible
27 Feb 6.3 11:45:56 11° SE 11:45:56 11° SE 11:46:35 10° SSE visible
27 Feb 5.8 13:27:26 21° SSW 13:27:26 21° SSW 13:29:13 10° SSW visible
28 Feb 5.8 13:08:32 22° S 13:08:32 22° S 13:10:22 10° S visible
